Starlink 5506

operational
NORAD ID: 55651 Int'l Des: 2023-021 Owner: SPXS Country: US Constellation: starlink
LEOCIRCULAR

About Starlink 5506

Description loading...

Live Position

Loading 3D Globe...

Upcoming Passes

Altitude History

Altitude vs Time

uPlot chart will show altitude changes over time

Two-Line Element Set

1 55651U 23021Z 26062.51027350 .00001020 00000-0 93265-4 0 9991
2 55651 70.0003 200.1216 0003250 270.4739 89.6047 14.98331079167865
Epoch: Mar 3, 2026 • Age: 38 hours

Current Status

Altitude 579.5 km
Velocity 7.57 km/s
Sub-Earth Point 43.41°N, 22.14°W
Launch Date Feb 17, 2023
Age 3 years
Type internet

Technical Details

Classification Payload
Mass 305.00 kg
Dry Mass 290.00 kg
Total Mass 305.00 kg
Length 0.20 m
Diameter 2.80 m
Span 9.00 m
Shape Box + pan
Manufacturer SPXS
Bus Type Starlink
Phase Status In Orbit
Owner/State SPXS/US

Large Constellations

Loading constellations...